Temp
75 67 65 70 73 74 74 72 71 78 84 84 79 72 73 71 71 69 68 67 80 84 85 86 87 88 88 85 84 83 79 80 80 78 77 74 75 76 77 79 79 80 80 81
70 64 74 78 78 75 74 71 71 78 85 82 79 73 72 72 72 71 68 66 69 84 85 87 87 89 87 83 84 79 80 79 80 80 80 75 75 76 77 78 79 80 80 80
66 71 80 78 75 73 72 70 71 72 81 83 78 71 70 75 73 69 69 67 70 78 85 85 87 86 86 83 82 81 80 79 80 80 79 76 76 75 75 76 77 79 80 80
71 78 76 74 73 75 65 78 78 77 73 65 79 59 65 69 68 68 71 72 75 76 86 86 87 86 85 83 83 83 80 79 80 79 80 79 79 76 74 76 77 78 80 80
68 73 73 71 74 79 71 80 77 77 71 65 71 67 68 71 66 67 69 75 77 80 86 87 87 87 87 86 83 82 81 80 81 81 81 78 75 73 75 75 76 76 78 79
74 83 78 77 81 81 82 76 74 74 69 58 67 64 67 68 70 69 74 75 77 80 88 89 89 89 87 86 84 82 80 80 81 80 77 78 75 74 73 73 74 75 77 80
71 74 80 83 74 79 76 68 56 54 56 55 64 61 64 78 82 76 77 78 80 86 89 88 87 87 86 85 84 82 80 78 79 80 80 75 76 75 75 75 76 74 76 80
59 58 73 81 75 70 71 69 53 44 49 55 65 60 67 81 86 92 90 89 89 90 90 89 88 87 87 87 84 82 79 79 80 79 79 80 77 80 80 76 76 79 79 81
60 61 79 80 83 79 69 65 71 55 56 52 59 67 76 84 83 86 91 92 89 90 90 89 89 89 88 87 84 83 79 79 80 80 79 79 80 77 80 80 76 77 78 81
67 57 75 79 82 82 74 75 61 63 48 48 58 63 65 73 79 80 83 90 91 91 91 91 90 89 88 89 87 85 81 80 80 80 80 80 80 80 78 80 78 78 78 79
55 62 65 75 72 70 70 67 68 60 57 49 48 60 79 78 80 81 84 85 93 91 91 91 90 91 89 90 88 85 82 80 80 80 80 80 80 80 81 77 79 79 77 79
53 52 58 63 75 82 77 71 70 61 53 56 55 62 79 78 86 86 86 86 89 93 93 93 92 91 89 88 88 86 84 82 82 82 81 80 81 80 79 80 78 80 81 77
51 47 49 58 66 74 73 76 73 66 61 57 56 57 82 81 86 88 82 87 85 86 92 93 92 91 89 89 89 87 87 84 84 82 82 80 80 80 79 80 81 80 81 82
54 49 48 51 60 66 68 74 75 69 63 61 63 62 75 77 78 79 81 83 83 84 92 93 92 91 91 90 89 88 88 89 85 84 82 81 80 81 82 81 81 82 81 81
48 43 54 60 66 69 70 74 75 70 69 64 66 66 71 71 77 77 80 82 84 83 90 90 93 92 92 90 89 89 89 89 89 84 83 82 82 82 82 82 82 81 82 81
47 44 51 54 67 69 69 75 77 75 75 72 73 69 76 78 79 78 79 80 79 80 82 87 88 93 92 91 89 89 89 90 90 88 84 85 83 83 82 82 82 82 81 82
42 47 45 45 60 62 56 68 75 76 78 76 66 70 76 73 78 76 76 80 80 81 83 84 85 85 91 93 91 89 90 91 89 87 87 86 84 82 82 82 82 81 81 82
43 45 45 45 52 43 61 73 77 77 78 79 78 78 77 77 75 77 78 79 79 81 81 82 82 82 81 87 91 92 91 88 88 87 85 86 84 82 82 82 81 82 83 82
53 49 42 41 48 55 65 69 70 65 63 68 73 80 81 81 77 74 78 79 77 76 77 78 79 80 81 80 81 88 88 86 85 86 83 85 84 83 82 81 82 83 83 82
56 55 45 47 43 45 57 67 73 74 52 67 70 73 81 76 64 64 75 78 78 79 79 79 80 80 80 79 82 79 87 88 86 85 82 82 85 84 82 82 83 83 83 83
46 48 45 47 45 50 60 66 71 56 52 66 67 68 68 64 66 69 75 75 77 77 77 79 79 78 78 79 78 78 81 80 83 86 83 82 83 83 84 84 84 83 82 82
45 43 44 46 45 40 62 65 55 60 63 66 66 66 66 67 69 70 71 71 73 73 76 77 75 75 77 78 77 75 77 80 82 81 80 79 79 82 82 81 82 82 82 80
42 44 36 45 47 58 62 62 67 68 65 63 62 65 66 66 66 67 67 68 70 71 71 74 73 73 76 78 76 75 77 79 80 79 78 78 79 80 82 79 80 80 81 80
50 55 46 47 54 57 61 64 64 65 63 65 66 65 66 64 66 65 66 65 66 67 70 71 72 71 74 78 79 76 78 78 78 77 77 76 78 76 78 78 81 81 80 79
47 50 43 45 51 51 55 57 60 59 61 65 67 67 66 65 64 64 63 63 63 64 66 69 69 71 73 74 77 77 77 77 76 75 77 77 78 77 75 59 57 75 64 69
49 43 38 36 45 44 46 54 57 55 56 60 62 65 66 66 64 64 61 61 62 62 64 66 66 70 72 75 75 75 76 76 75 75 76 75 75 77 73 63 59 48 47 45
MSLP
1000.27 1000.64 999.32 999.29 999.68 999.86 999.71 999.31 998.59 997.74 997.10 997.76 998.76 1001.44 1003.38 1004.50 1005.41 1006.06 1008.25 1009.36 1007.88 1007.20 1007.33 1007.68 1008.05 1008.66 1009.35 1009.91 1010.61 1011.28 1012.24 1013.09 1013.88 1014.56 1015.22 1015.92 1016.24 1016.28 1016.19 1016.18 1016.47 1016.66 1017.00 1017.26
999.88 998.33 998.52 999.16 999.42 999.36 999.07 998.62 998.00 997.29 996.68 997.27 998.52 1000.28 1002.80 1004.03 1004.44 1006.44 1007.70 1008.66 1008.66 1006.70 1006.41 1006.62 1006.98 1007.62 1008.32 1009.17 1009.89 1010.76 1011.61 1012.56 1013.32 1013.97 1014.63 1015.30 1015.68 1015.87 1015.84 1015.82 1016.18 1016.36 1016.62 1016.90
997.70 996.67 998.32 998.19 998.42 998.42 998.10 997.86 997.49 997.21 996.58 996.80 997.64 1000.27 1002.36 1004.12 1005.72 1006.68 1007.04 1008.15 1007.35 1006.92 1005.59 1005.78 1005.98 1006.73 1007.62 1008.55 1009.28 1010.12 1010.94 1011.91 1012.74 1013.46 1014.28 1014.90 1015.42 1015.64 1015.78 1015.84 1015.94 1016.17 1016.20 1016.40
996.88 997.18 996.90 997.12 997.10 997.41 997.21 997.22 997.22 996.82 997.04 997.12 996.85 999.20 1001.18 1002.23 1004.17 1004.51 1004.79 1004.40 1004.48 1004.86 1004.62 1004.87 1005.37 1006.06 1006.88 1007.76 1008.74 1009.56 1010.39 1011.26 1012.13 1012.86 1013.64 1014.25 1014.67 1015.12 1015.32 1015.42 1015.58 1015.72 1015.77 1016.01
995.30 995.68 995.89 996.05 995.77 996.37 996.54 997.08 996.95 996.89 997.24 997.54 997.34 997.69 998.97 1000.33 1001.94 1002.56 1002.72 1001.67 1002.87 1002.86 1003.14 1003.36 1004.16 1004.86 1005.91 1007.12 1008.11 1008.96 1009.78 1010.70 1011.51 1012.20 1012.73 1013.49 1014.18 1014.60 1014.77 1015.04 1015.25 1015.39 1015.50 1015.58
995.64 995.24 995.08 994.93 995.33 995.65 996.27 996.79 997.05 997.05 997.53 997.45 997.05 997.38 997.41 998.29 998.75 999.59 1000.28 1000.58 1000.95 1001.41 1001.64 1002.32 1003.22 1004.22 1005.26 1006.51 1007.54 1008.61 1009.35 1010.13 1010.80 1011.54 1012.16 1012.70 1013.44 1014.05 1014.58 1014.86 1015.14 1015.19 1015.29 1015.52
995.36 994.24 994.00 993.90 994.51 994.74 995.42 996.39 997.35 997.64 997.20 996.85 996.70 996.54 995.84 994.80 995.50 996.58 997.52 998.55 999.26 999.52 1000.01 1001.16 1002.26 1003.28 1004.28 1005.45 1006.66 1007.81 1008.80 1009.64 1010.30 1010.92 1011.49 1012.24 1012.82 1013.41 1013.86 1014.22 1014.49 1014.83 1014.93 1015.06
995.16 993.65 992.66 992.71 992.84 993.62 994.14 994.88 995.92 996.68 996.86 997.15 996.58 995.45 994.26 993.74 993.28 993.30 994.31 995.23 996.80 997.63 998.56 999.62 1000.74 1001.91 1002.94 1004.21 1005.56 1006.78 1007.91 1008.82 1009.48 1010.16 1010.81 1011.50 1012.24 1012.61 1012.95 1013.39 1013.68 1013.94 1014.14 1014.32
995.39 993.10 992.35 992.31 992.10 992.66 993.20 993.94 995.16 996.24 996.64 996.90 996.36 995.00 993.84 992.93 992.41 992.80 992.79 993.70 994.96 996.02 997.14 998.14 999.58 1000.66 1001.84 1003.15 1004.31 1005.51 1006.90 1007.88 1008.57 1009.12 1009.92 1010.74 1011.44 1012.02 1012.22 1012.60 1013.01 1013.33 1013.49 1013.70
996.35 995.48 992.67 991.51 991.84 991.26 991.36 993.35 994.55 995.30 996.77 996.78 996.06 994.76 992.92 992.47 991.82 991.72 992.28 992.53 993.21 994.32 995.59 996.92 998.42 999.62 1000.81 1001.74 1002.96 1004.43 1005.80 1006.83 1007.79 1008.65 1009.34 1010.01 1010.44 1011.04 1011.62 1012.10 1012.49 1012.74 1012.97 1013.24
1000.28 996.66 993.29 992.55 990.88 990.49 990.99 992.04 993.19 994.88 995.76 996.08 995.75 993.38 991.32 991.01 990.67 990.90 991.10 991.33 991.77 993.10 994.40 995.80 997.30 998.52 999.57 1000.80 1002.08 1003.38 1004.78 1006.11 1007.18 1008.00 1008.68 1009.22 1009.80 1010.46 1011.08 1011.67 1011.90 1012.21 1012.41 1012.68
1003.02 998.89 994.43 992.02 990.42 990.03 990.57 991.11 992.34 993.52 994.70 994.89 994.48 992.39 990.05 989.50 989.06 989.72 990.20 990.57 991.22 991.98 993.46 994.79 996.21 997.50 998.85 1000.10 1001.34 1002.47 1003.64 1004.83 1005.79 1006.77 1007.76 1008.55 1009.21 1009.84 1010.50 1010.90 1011.30 1011.57 1011.78 1011.97
1004.62 1000.03 996.32 992.81 991.83 990.60 989.66 990.18 991.35 992.57 993.92 994.18 994.04 992.30 990.06 988.78 987.89 988.86 989.85 990.34 990.82 991.67 993.10 994.21 995.52 996.74 997.90 999.07 1000.14 1001.33 1002.45 1003.57 1004.78 1005.97 1006.91 1007.72 1008.39 1008.99 1009.58 1010.05 1010.46 1010.87 1011.08 1011.36
1006.08 1001.08 998.28 994.33 991.43 990.56 989.47 989.45 990.38 991.58 992.58 993.29 992.53 992.29 990.99 989.69 988.92 989.45 989.88 990.49 990.93 991.32 992.51 993.75 994.81 995.87 996.82 997.98 999.09 1000.28 1001.38 1002.54 1003.82 1004.84 1005.73 1006.51 1007.24 1007.86 1008.41 1008.94 1009.53 1010.00 1010.33 1010.70
1006.94 1001.44 998.09 994.62 992.01 990.70 989.90 989.03 989.53 990.05 991.37 991.78 991.89 992.06 990.99 990.31 989.94 989.82 990.12 990.80 991.22 991.76 992.28 993.23 994.19 995.12 996.04 997.18 998.25 999.27 1000.14 1001.22 1002.33 1003.60 1004.52 1005.19 1006.04 1006.77 1007.42 1007.99 1008.56 1009.15 1009.52 1009.84
1005.87 1002.20 998.30 994.62 992.37 991.18 990.14 988.69 988.36 989.43 990.07 991.12 990.73 991.12 990.27 990.30 990.47 990.98 991.24 991.56 991.92 992.34 992.74 993.09 993.64 994.37 995.21 996.11 997.23 998.19 999.27 1000.13 1001.19 1002.14 1003.12 1004.01 1004.96 1005.72 1006.32 1006.90 1007.53 1008.06 1008.36 1008.90
1006.60 1003.24 1000.10 995.66 993.18 991.97 990.61 988.97 988.34 988.71 989.43 990.14 990.53 990.34 990.64 990.96 991.24 991.75 992.23 992.57 993.04 993.24 993.42 993.75 993.95 994.53 995.17 995.90 996.76 997.68 998.56 999.32 1000.29 1001.13 1001.94 1002.83 1003.74 1004.51 1005.16 1005.83 1006.51 1006.90 1007.29 1007.88
1006.12 1003.76 1000.99 997.46 994.32 993.08 990.83 989.55 989.28 988.83 989.63 990.22 990.29 990.30 990.50 991.26 991.93 992.01 992.18 993.12 993.72 994.09 994.55 994.72 995.00 995.22 995.42 995.76 996.22 996.76 997.80 998.82 999.48 1000.17 1001.00 1001.82 1002.64 1003.42 1004.22 1004.82 1005.20 1005.68 1006.18 1006.58
1004.13 1002.88 1001.28 999.01 996.02 994.01 991.91 991.58 990.92 989.78 992.21 993.01 991.68 990.59 991.15 991.82 992.73 994.26 993.98 993.95 994.67 994.94 995.24 995.66 996.05 996.18 996.08 996.44 996.76 997.05 997.59 998.18 998.92 999.48 1000.10 1000.69 1001.50 1002.36 1003.15 1003.65 1004.11 1004.64 1005.19 1005.58
1002.70 1002.10 1001.89 1000.24 998.00 995.99 995.34 993.48 991.42 990.56 994.83 995.68 993.88 992.30 992.25 992.74 995.14 996.75 995.82 995.25 995.41 995.60 995.77 996.04 996.14 996.44 996.65 997.03 996.91 997.24 996.98 997.23 997.86 998.46 999.17 999.95 1000.64 1001.34 1001.88 1002.41 1003.02 1003.55 1004.02 1004.48
1003.32 1003.25 1002.30 1001.04 999.90 998.16 997.62 995.34 992.52 993.29 999.04 998.04 996.86 996.20 995.46 996.21 997.70 997.59 996.78 996.53 996.52 996.53 996.69 996.74 996.92 997.44 997.66 997.40 997.48 997.68 997.49 997.78 997.66 997.79 998.50 999.16 999.74 1000.23 1000.79 1001.55 1002.21 1002.84 1003.40 1003.94
1003.78 1003.71 1003.36 1002.49 1001.56 1001.35 1000.52 998.27 998.07 999.41 999.41 999.19 998.74 998.42 998.00 998.11 998.26 998.41 998.34 998.18 998.02 997.86 997.60 997.72 997.92 998.12 998.10 997.92 997.76 997.70 997.57 997.40 997.46 997.90 998.57 998.91 999.22 999.73 1000.41 1000.98 1001.63 1002.23 1002.82 1003.25
1005.93 1006.98 1006.90 1005.45 1003.97 1002.27 1001.86 1001.18 1000.60 1000.30 1000.31 1000.28 1000.14 999.70 999.44 999.49 999.65 999.76 999.93 999.80 999.67 999.42 999.08 998.92 999.06 999.00 998.28 997.81 997.59 997.74 997.60 997.40 997.51 997.75 998.16 998.41 998.83 999.37 999.90 1000.55 1001.23 1001.86 1002.33 1002.74
1007.36 1006.53 1006.35 1005.86 1004.39 1004.87 1003.44 1002.14 1002.14 1001.90 1001.40 1001.08 1000.77 1000.67 1000.44 1000.46 1000.44 1000.56 1000.66 1000.75 1000.64 1000.46 1000.28 1000.08 1000.02 999.96 999.50 998.80 998.39 997.93 997.80 997.83 998.00 998.24 998.24 998.31 998.52 998.97 999.54 1000.13 1000.92 1001.53 1002.00 1002.43
1008.61 1008.04 1008.42 1006.69 1006.14 1005.97 1004.06 1003.60 1003.82 1003.40 1003.11 1002.10 1001.03 1000.87 1000.86 1000.89 1001.06 1001.10 1001.46 1001.72 1001.68 1001.35 1000.95 1000.50 1000.45 1000.49 1000.15 999.72 999.12 998.59 998.15 997.89 997.88 997.91 997.97 997.92 998.05 998.51 999.40 1000.84 1001.78 1001.60 1002.14 1002.29
1010.74 1010.92 1010.71 1008.46 1007.98 1008.73 1006.69 1005.34 1004.95 1004.63 1004.20 1003.38 1002.44 1001.21 1000.91 1000.98 1001.20 1001.45 1001.90 1002.11 1002.05 1001.74 1001.15 1000.71 1000.58 1000.44 1000.09 999.88 999.40 998.84 998.58 998.36 998.19 997.86 997.76 997.68 997.77 998.25 999.28 1000.68 1002.19 1002.62 1002.76 1002.71
Wind_Speed
18 12 24 23 19 13 11 16 14 15 11 12 14 21 23 19 21 24 19 2 14 18 26 23 23 22 21 15 18 18 16 16 11 8 8 4 5 3 3 3 6 8 7 7
14 26 19 15 16 19 18 21 20 13 17 14 12 17 25 26 28 18 16 13 16 20 17 21 23 23 22 19 20 13 15 18 13 10 8 4 4 3 3 3 5 7 7 7
24 13 19 20 20 22 22 19 19 13 16 16 9 21 21 14 20 21 22 16 26 17 24 19 19 20 20 20 20 17 16 17 14 12 7 4 2 2 3 3 3 5 8 7
26 20 25 24 23 22 19 19 21 21 14 10 12 8 15 16 18 19 24 29 31 22 23 21 22 19 22 20 19 19 15 16 14 13 12 13 10 7 4 5 4 5 8 7
25 26 25 24 25 21 14 17 20 21 15 8 13 10 12 22 16 20 23 23 26 25 24 26 26 22 20 20 19 19 18 16 16 15 13 10 8 5 5 4 7 6 6 7
25 14 21 25 19 20 17 12 15 17 13 13 17 7 13 17 25 25 25 21 24 27 27 26 25 21 19 18 19 18 19 18 16 14 11 14 9 8 5 5 4 4 5 7
20 30 24 22 20 22 13 14 9 11 13 14 9 6 9 9 21 34 31 27 30 29 29 26 27 24 21 22 21 19 20 18 16 18 16 9 10 9 9 8 6 6 4 6
21 21 31 22 22 18 22 21 7 9 8 8 8 10 9 9 6 17 28 33 33 30 27 29 28 26 24 23 23 22 22 21 20 18 19 16 11 9 9 7 5 7 7 8
17 30 14 30 21 20 17 19 13 3 5 4 5 11 11 16 12 9 18 21 31 30 28 29 28 25 25 23 24 24 23 22 22 21 17 17 15 11 12 12 6 5 6 6
27 12 19 22 24 21 16 9 12 9 10 10 9 14 17 13 18 9 10 17 25 31 30 27 26 25 24 24 22 23 22 23 21 20 16 15 17 17 10 10 10 8 7 7
18 15 30 15 25 28 10 12 14 5 6 8 4 11 15 21 19 16 14 13 24 28 29 26 25 24 25 23 21 22 21 22 19 18 18 17 16 15 15 7 11 11 6 8
21 11 19 27 13 25 16 14 16 12 14 5 5 11 6 8 25 19 16 11 17 22 28 27 26 25 23 23 21 22 20 21 21 20 17 17 15 14 14 15 9 12 13 7
15 8 7 20 15 20 25 25 16 9 6 12 9 7 3 13 20 19 10 12 10 15 27 25 25 24 22 23 22 22 21 21 20 19 18 17 16 16 15 16 16 11 13 14
24 13 16 12 15 7 20 23 21 12 12 10 11 5 9 9 10 9 9 9 10 11 23 24 24 24 22 22 22 21 21 20 20 20 20 18 18 17 17 16 16 15 13 14
13 10 14 15 15 11 15 28 23 22 15 16 10 8 6 2 8 5 7 7 11 9 20 19 23 23 23 22 21 21 21 21 21 20 20 20 18 18 17 17 16 16 16 13
16 10 19 7 11 11 16 22 25 21 20 13 14 8 8 8 9 11 10 10 9 9 10 12 12 23 24 23 22 21 21 21 21 20 21 20 18 18 18 17 17 16 16 17
16 11 13 5 4 3 6 16 20 19 17 18 13 9 7 5 12 10 9 11 11 10 10 10 9 12 16 17 17 19 20 19 19 20 20 19 19 19 19 18 17 18 17 15
21 19 5 6 6 2 8 6 9 18 12 14 12 12 13 11 6 10 10 11 10 10 10 10 8 6 5 9 17 18 16 16 19 18 18 19 17 19 18 18 19 18 16 17
17 9 5 4 2 5 6 10 11 2 8 24 13 9 10 17 22 17 13 15 13 11 8 8 8 7 10 9 3 11 13 14 15 18 15 18 18 19 18 20 19 18 16 16
15 6 2 5 4 3 7 26 25 6 12 22 20 18 21 17 15 3 9 14 14 13 11 11 9 7 9 7 8 2 13 18 17 15 13 13 16 17 19 19 19 16 17 16
7 4 4 7 4 6 28 30 16 9 5 14 18 18 22 19 7 6 13 15 13 12 14 14 14 12 9 5 6 5 4 1 8 9 11 12 14 17 17 17 15 15 15 14
4 3 3 3 5 5 19 13 17 3 7 10 13 15 16 14 14 13 13 13 14 14 14 15 13 13 12 10 5 6 3 4 3 8 7 8 9 10 9 13 13 13 13 14
7 6 3 12 5 1 8 12 7 11 7 8 8 10 11 11 11 10 11 13 12 12 8 12 11 15 15 13 8 2 4 1 2 2 7 9 9 9 9 11 11 11 12 11
12 9 5 9 11 17 13 13 19 20 10 8 7 8 9 8 9 8 8 8 8 8 10 9 11 12 15 13 13 8 4 2 3 4 5 6 10 8 8 6 8 9 10 10
4 11 19 12 10 18 13 19 17 21 21 19 8 5 6 6 6 6 7 8 7 7 7 8 7 8 12 10 10 7 8 8 6 5 6 7 7 10 7 7 3 5 3 4
8 12 8 11 24 15 24 22 21 19 20 20 16 7 5 6 5 6 4 3 3 6 7 9 8 9 12 13 10 7 7 7 8 7 5 5 5 6 8 8 6 14 10 7
Wind_Direction
213 209 220 214 226 229 233 246 231 244 233 229 208 138 169 169 158 166 183 279 222 200 188 190 191 189 174 166 162 169 150 163 161 162 168 167 200 218 216 204 161 166 171 176
214 227 222 209 219 233 230 238 244 234 241 228 186 160 167 168 178 145 118 334 297 191 197 182 176 177 171 166 170 158 155 164 169 168 175 163 179 192 187 204 170 179 172 174
210 219 221 210 219 222 230 233 243 242 232 239 198 153 161 179 126 131 134 179 260 240 193 185 180 175 171 168 171 170 164 163 169 167 162 161 169 193 178 206 213 188 179 179
227 224 199 225 217 221 221 234 247 251 257 236 188 208 192 173 168 172 154 182 209 216 199 185 187 176 176 174 170 173 164 162 172 164 174 187 198 192 193 186 194 194 184 185
216 205 226 212 223 219 227 221 240 251 260 274 272 196 191 170 189 181 194 203 204 203 204 185 186 181 177 170 173 173 173 169 170 181 181 181 190 177 180 176 189 192 199 191
229 223 221 227 214 228 218 224 242 246 250 255 250 207 218 169 187 201 204 201 202 197 196 186 183 178 174 173 171 173 176 178 176 180 177 192 186 183 186 200 188 196 189 198
233 223 224 225 216 208 208 210 227 233 227 236 243 249 212 189 185 191 199 202 199 203 181 179 179 182 175 173 176 173 178 182 179 188 197 182 190 183 192 201 200 187 178 191
227 227 214 212 223 206 206 211 191 200 224 235 253 256 253 245 229 208 181 182 188 181 179 179 180 180 182 177 175 176 179 184 185 185 195 201 198 201 205 192 186 203 189 185
214 243 194 226 214 212 205 221 211 211 231 145 219 270 278 265 270 187 199 175 178 177 177 178 179 180 182 177 178 179 180 186 189 191 191 198 202 204 204 208 198 200 207 185
251 283 222 214 231 232 187 159 208 210 199 225 225 224 235 236 243 224 209 189 173 178 177 176 178 179 180 182 179 179 180 186 189 193 193 196 202 206 204 198 204 208 218 220
309 238 254 241 210 219 195 190 202 163 181 187 219 238 231 221 221 216 209 185 182 174 174 175 176 179 179 183 176 180 177 182 186 187 196 199 202 203 206 197 204 210 205 212
286 289 235 240 259 213 211 212 197 201 226 226 202 251 315 225 206 204 204 181 176 165 173 174 173 178 177 179 178 181 179 182 187 192 191 201 200 199 200 210 202 205 215 205
329 324 266 245 253 267 208 204 212 172 144 225 230 272 280 313 190 193 176 188 169 145 170 173 171 178 177 180 182 181 185 185 186 186 193 194 200 199 199 205 211 202 210 216
310 247 245 254 232 215 214 198 206 200 202 217 235 219 297 355 74 150 160 152 174 147 162 172 175 180 179 180 181 184 186 185 184 188 193 196 197 199 205 203 205 209 207 210
318 267 258 271 270 278 291 199 196 210 209 201 232 192 202 125 63 95 149 143 147 144 163 165 177 178 181 181 182 184 186 187 186 188 194 198 197 198 202 208 205 206 213 209
320 292 320 276 264 265 277 220 195 201 212 224 214 218 198 172 98 72 77 84 91 105 109 161 175 181 179 179 181 183 187 191 189 193 194 197 196 196 201 204 206 206 209 212
294 319 331 306 279 325 301 246 209 201 197 211 227 199 166 109 121 118 89 92 86 85 91 99 101 146 179 178 176 181 188 187 191 194 199 196 195 197 200 202 203 209 212 207
271 289 277 280 54 181 250 331 304 195 199 207 226 166 156 148 121 107 108 97 81 67 61 58 53 49 112 161 181 184 178 182 191 195 196 198 195 197 198 201 204 207 209 211
251 266 291 310 173 331 316 358 334 98 68 9 336 146 150 111 69 33 34 61 73 73 62 65 72 69 41 40 46 181 180 180 181 196 189 195 192 195 195 202 205 206 210 213
251 256 269 339 317 166 19 343 325 294 48 7 16 31 121 87 82 22 33 54 54 51 45 32 30 49 38 28 35 105 193 186 193 192 186 178 187 193 199 200 203 204 209 214
204 301 289 283 290 354 1 356 20 76 44 17 20 30 50 69 67 39 32 41 42 48 37 28 25 20 353 37 37 31 78 181 233 200 181 182 183 191 197 199 200 202 206 211
128 175 215 291 339 3 344 3 55 55 57 42 22 25 42 47 37 32 27 29 36 28 31 27 19 2 346 339 16 336 272 235 209 180 190 198 189 188 180 189 195 198 202 209
27 69 244 1 6 7 354 321 23 25 39 30 28 15 28 33 30 29 30 24 20 19 24 27 16 356 342 340 317 269 277 274 220 179 206 195 185 188 186 178 187 194 198 205
340 356 334 335 334 347 313 358 1 1 357 359 17 20 8 16 12 22 31 20 13 14 11 25 10 357 338 347 353 344 356 106 144 257 259 207 188 177 180 169 181 191 197 204
301 0 339 301 322 346 322 330 337 340 340 338 325 330 319 341 352 41 29 22 11 360 352 3 12 344 339 332 330 341 345 350 320 233 239 203 185 182 141 73 1 226 46 240
13 340 315 280 306 283 279 295 311 321 317 316 326 318 3 2 339 63 53 14 357 345 339 347 341 342 328 322 326 312 326 329 326 286 256 213 172 172 133 131 107 48 57 27